www.pogodaiklimat.ru

Погода и климат >> Архив погоды >> Индия >> Джаркханд >> Ранчи


ПОГОДА в Ранчи

  • Прогноз погоды в Ранчи
  • Монитор погоды в Ранчи

АРХИВ ПОГОДЫ в Ранчи

Время (UTC), дата Ветер
(напр.,м/с)
 
Видим.   Явления Облачность Т
(С)
Тd
(С)
f
(%)
Тe
(С)
Тes
(С)
Комфортность P
(гПа)
Po
(гПа)
Тmin
(С)
Tmax
(С)
R
(мм)
R24
(мм)
S
(см)
12 18.06 СВ 2 4000 м 6/6 600 м
[Sc diur, vesp]
+35.2 +20.2 42 +42 +42 опасность
перегрева
995.2 927.0 +37.0
15 18.06 Ю 2 4000 м мгла 6/4 600 м
[Sc Ac trans]
+32.4 +20.5 50 +39 +39 очень
душно
998.3 929.1
18 18.06 З 2 4000 м мгла 8/5 600 м
[Sc Ac trans]
+29.0 +21.8 65 +37 +37 очень
душно
1000.2 930.1
21 18.06 ЮЗ 1 4000 м мгла 5/3 600 м
[Sc Ac trans]
+28.0 +21.3 67 +35 +35 очень
душно
999.7 929.3
00 19.06 СЗ 1 4000 м мгла 4/0 600 м
[Ac trans]
+26.8 +21.9 75 +35 +35 очень
душно
999.3 928.8
03 19.06 СВ 2 4000 м мгла 3/3 600 м
[Sc]
+33.2 +18.3 41 +38 +45 очень
душно
999.0 930.0 +26.2
06 19.06 СВ 2 4000 м мгла 6/6 600 м
[Sc diur, vesp]
+36.2 +20.0 39 +42 +52 опасность
перегрева
998.3 930.0
09 19.06 С 2 4000 м мгла 8/5 600 м
[Sc diur, vesp Ac trans]
+37.6 +18.5 33 +42 +46 опасность
перегрева
995.6 927.7
12 19.06 СВ 2 4000 м мгла 9/6 600 м
[Cb calv Ac trans]
+36.2 +18.9 36 +41 +41 опасность
перегрева
995.0 926.9 +38.2
15 19.06 штиль 0 4000 м мгла {гроза} 9/5 540 м
[Cb calv Ac trans]
+29.8 +22.1 63 +38 +38 очень
душно
999.9 930.0 0.0
18 19.06 штиль 0 4000 м мгла 8/5 540 м
[Sc Ac trans]
+28.0 +22.9 74 +37 +37 очень
душно
1000.6 930.2 0.0
21 19.06 штиль 0 4000 м мгла 8/5 540 м
[Sc Ac trans]
+26.8 +22.5 77 +35 +35 очень
душно
1000.0 929.4 0.0
00 20.06 штиль 0 4000 м мгла 8/5 540 м
[Sc Ac trans]
+26.6 +22.3 77 +35 +35 очень
душно
1000.7 930.1 0.0
03 20.06 С 2 4000 м мгла 9/5 540 м
[Sc Ac trans]
+30.0 +20.4 56 +37 +39 очень
душно
1001.1 931.1 +26.4 0.0
06 20.06 СВ 1 4000 м мгла 9/5 540 м
[Sc Ac trans]
+34.0 +21.1 47 +41 +48 опасность
перегрева
999.9 930.9
09 20.06 В 4 4000 м гроза без осадков 9/6 540 м
[Cb cap Ac trans]
+34.0 +21.8 49 +42 +45 опасность
перегрева
998.4 929.4
12 20.06 ЮВ 1 4000 м мгла 9/6 540 м
[Cb cap Ac trans]
+28.6 +22.6 70 +38 +38 очень
душно
999.2 929.1 +37.7 3
15 20.06 штиль 0 2000 м зарница {дождь} 9/5 540 м
[Cb cap Ac trans]
+26.0 +23.4 86 +35 +35 очень
душно
1000.4 929.5 3
18 20.06 Ю 3 2000 м слаб. дождь {гроза, морось} 9/5 540 м
[Cb cap Ac trans]
+25.0 +23.9 94 +34 +34 очень
душно
1003.1 931.8 3
21 20.06 Ю 2 2000 м слаб. дождь 9/5 540 м
[Cb cap Ac trans]
+25.0 +23.9 94 +34 +34 очень
душно
1001.6 930.5 3
00 21.06 ЮЗ 2 2000 м мгла {дождь} 9/5 540 м
[Sc Ac trans]
+24.0 +23.1 95 +32 +32 очень
душно
1001.8 930.4 3
03 21.06 ЮЗ 1 2000 м мгла {дождь} 9/5 540 м
[Sc Ac trans]
+26.6 +23.8 85 +37 +40 очень
душно
1002.5 931.7 +23.4 3
06 21.06 ЮВ 1 4000 м мгла 9/6 600 м
[Sc diur, vesp Ac trans]
+31.4 +23.3 62 +42 +48 опасность
перегрева
1000.6 930.9
09 21.06 В 2 4000 м мгла 9/8 540 м
[Cb calv Ac trans]
+33.6 +23.6 56 +45 +47 опасность
перегрева
997.3 928.5
12 21.06 ЮВ 6 4000 м мгла 9/8 450 м
[Cb calv Ac trans]
+30.6 +23.8 67 +42 +42 опасность
перегрева
997.0 927.5 +36.8
15 21.06 В 2 4000 м слаб. дождь 9/6 450 м
[Cb calv Ac trans]
+25.8 +23.5 87 +35 +35 очень
душно
1001.4 930.5 0.0
18 21.06 штиль 0 4000 м слаб. дождь 9/6 450 м
[Cb calv Ac trans]
+25.2 +23.8 92 +34 +34 очень
душно
1000.9 930.5 2
21 21.06 штиль 0 4000 м слаб. дождь 9/6 450 м
[Cb calv Ac trans]
+25.0 +23.6 92 +34 +34 очень
душно
1000.8 929.7 2
00 22.06 В 2 2000 м слаб. дождь 10/6 300 м
[Frnb As op]
+24.4 +24.1 98 +34 +34 очень
душно
999.8 928.8 16
03 22.06 ЮВ 3 2000 м слаб. дождь 10/8 300 м
[St As op]
+25.0 +24.4 96 +35 +35 очень
душно
1000.9 929.8 +23.2 22
06 22.06 Ю 3 4000 м мгла {дождь} 9/8 300 м
[St Ac trans]
+26.4 +25.3 94 +38 +41 очень
душно
1000.4 929.8 3
09 22.06 Ю 3 4000 м слаб. дождь 10/8 300 м
[Frnb As op]
+27.0 +25.3 90 +39 +40 очень
душно
998.9 928.4 3
12 22.06 Ю 2 4000 м мгла {гроза, дождь} 9/5 450 м
[Cb calv Ac trans]
+26.4 +24.4 89 +37 +37 очень
душно
998.9 928.4 +28.0 11
15 22.06 ЮВ 2 4000 м мгла 6/4 600 м
[Sc Ac trans]
+25.4 +24.8 96 +36 +36 очень
душно
1001.1 930.2 11
18 22.06 Ю 2 2000 м гроза с градом 10/6 450 м
[Cb cap As op]
+24.6 +23.7 95 +33 +33 очень
душно
1001.8 930.7 11
21 22.06 Ю 3 2000 м мгла 8/5 540 м
[Sc Ac trans]
+24.2 +23.9 98 +33 +33 очень
душно
1000.9 929.8 11
00 23.06 Ю 3 2000 м мгла 9/5 540 м
[Sc Ac trans]
+24.0 +23.1 95 +32 +32 очень
душно
1002.7 930.6 11
03 23.06 Ю 4 4000 м мгла 6/5 540 м
[Sc Ac trans]
+27.0 +23.0 79 +36 +39 очень
душно
1002.6 931.8 +23.4 11
06 23.06 Ю 3 4000 м мгла 8/6 540 м
[Sc diur, vesp Ac trans]
+30.0 +23.5 68 +41 +46 опасность
перегрева
1001.9 931.9
09 23.06 Ю 3 4000 м мгла 8/6 540 м
[Sc diur, vesp Ac trans]
+31.0 +23.4 64 +42 +45 опасность
перегрева
1000.5 930.8
12 23.06 штиль 0 50 км мгла ?/? +28.0 +24.7 82 +40 +40 очень
душно
1000.9 930.5 +32.0
15 23.06 ЮВ 1 4000 м мгла 5/5 600 м
[]
+26.4 +24.4 89 +37 +37 очень
душно
1002.6 931.8
18 23.06 штиль 0 4000 м мгла 4/0
[Ac trans]
+26.0 +24.3 90 +36 +36 очень
душно
1003.1 932.1
21 23.06 штиль 0 4000 м мгла 4/0
[Ac trans]
+24.4 +23.3 94 +33 +33 очень
душно
1002.8 931.5
00 24.06 Ю 2 2000 м мгла 8/4 540 м
[Sc Ac trans]
+24.4 +23.3 94 +33 +33 очень
душно
1003.7 932.4
03 24.06 Ю 3 4000 м мгла 6/6 540 м
[Sc diur, vesp]
+28.0 +23.8 78 +39 +43 очень
душно
1005.1 934.4 +24.2
06 24.06 ЮЗ 2 4000 м мгла 8/8 450 м
[Sc diur, vesp]
+31.6 +23.4 62 +42 +47 опасность
перегрева
1003.8 934.1
09 24.06 Ю 2 4000 м мгла 8/8 540 м
[Sc diur, vesp]
+34.0 +24.3 57 +46 +49 опасность
перегрева
1001.0 931.9
12 24.06 Ю 2 4000 м мгла 6/6 600 м
[Sc diur, vesp]
+32.6 +23.4 58 +43 +44 опасность
перегрева
1000.0 930.8 +37.7
15 24.06 Ю 2 4000 м мгла 3/0
[Ac trans]
+29.0 +23.1 71 +39 +39 очень
душно
1002.3 932.0
18 24.06 Ю 2 4000 м мгла 3/0
[Ac trans]
+27.4 +23.7 80 +37 +37 очень
душно
1003.7 933.0
21 24.06 Ю 2 4000 м мгла 3/0
[Ac trans]
+26.4 +23.6 85 +36 +36 очень
душно
1003.3 932.5
00 25.06 штиль 0 50 км мгла ?/? +25.6 +24.2 92 1004.1
03 25.06 ЮЗ 3 4000 м мгла 5/3 600 м
[Sc Ac trans]
+29.0 +24.3 76 +41 +47 опасность
перегрева
1004.5 934.1 +25.0
06 25.06 ЮЗ 2 4000 м мгла 8/8 600 м
[Sc diur, vesp]
+33.4 +22.7 54 +43 +48 опасность
перегрева
1002.9 933.6
09 25.06 З 2 4000 м мгла 8/8 600 м
[Cb calv]
+35.6 +23.4 49 +46 +49 опасность
перегрева
1000.1 931.5

 

Местоположение метеостанции Ранчи (Джаркханд, Индия): широта 23.32 долгота 85.32 высота над уровнем моря 652 м.

В архиве по умолчанию представлена погода в Ранчи за последнюю неделю. Архивные данные за месяц целиком и за предыдущие месяцы, начиная с января 2011 года, Вы можете получить, выбрав интересующий диапазон дат из раскрывающегося списка и нажав кнопку "Ввод!".


*Определитесь, кто Вы:
робот инопланетянин человек

Внимание! Время в таблицах - всемирное. Для получения местного времени необходимо прибавить поправку, которая равна 5.5 ч.

Смотрите также архив погоды в соседних городах и на ближайших метеорологических станциях:

Погода в Чайбасе (Джаркханд, Индия) (100 км)
Погода в Джамшедпуре (Джаркханд, Индия) (104 км)
Погода в Пурулии (Западная Бенгалия, Индия) (112 км)
Погода в Далтонгандже (Джаркханд, Индия) (151 км)
Погода в Гае (Бихар, Индия) (163 км)
Погода в Асансоле (Западная Бенгалия, Индия) (174 км)
Погода в Банкуре (Западная Бенгалия, Индия) (177 км)
Погода в Сундаргархе (Орисса, Индия) (188 км)
Погода в Кендуджхаре (Орисса, Индия) (190 км)
Погода в Джхарсугуде (Орисса, Индия) (201 км)

Пояснения к столбцам:

Ветер - указаны скорость ветра в м/с - средняя за 10 мин, порывы в срок и между сроками (в фигурных скобках) и направление, откуда дует ветер: С - северный, СВ - северо-восточный, В - восточный, ЮВ - юго-восточный, Ю - южный, ЮЗ - юго-западный, З - западный, СЗ - северо-западный.
Видимость - горизонтальная дальность видимости в метрах или километрах. При видимости от 1 до 10 км при отсутствии осадков обычно наблюдается дымка, при ухудшении видимости до 1 км и менее - туман. В сухую погоду видимость может ухудшаться дымом, пылью или мглою.
Явления - указаны атмосферные явления, наблюдавшиеся в срок или в последний час перед сроком; фигурными скобками обозначены явления, наблюдавшиеся между сроками (за 1-3 часа до срока); квадратными скобками обозначены град или гололедные отложения с указанием их диаметра в мм.
Облачность - указаны через наклонную черту общая и нижняя облачность в баллах и высота нижней границы облаков в метрах; квадратными скобками обозначены формы облаков: Ci - перистые, Cs - перисто-слоистые, Cc - перисто-кучевые, Ac - высококучевые, As - высокослоистые, Sc - слоисто-кучевые, Ns - слоисто-дождевые, Cu - кучевые, Cb - кучево-дождевые. Подробнее классификацию облаков см. в Атласе облаков (PDF).
T - Температура воздуха - температура, измеренная на высоте 2 м над землей.
Td - Температура точки росы - температура, при понижении до которой содержащийся в воздухе водяной пар достигнет насыщения.
f - Относительная влажность воздуха - влажноcть воздуха, измеренная на высоте 2 м над землей.
Te - Эффективная температура - температура, которую ощущает одетый по сезону человек в тени. Характеристика душности погоды. При расчете учитывается влияние влажности воздуха и скорости ветра на теплоощущения человека.
Tes - Эффективная температура на солнце - температура, которую ощущает человек, с поправкой на солнечный нагрев. Характеристика знойности погоды. Зависит от высоты солнца над горизонтом, облачности и скорости ветра. Ночью, в пасмурную погоду, а также при ветре 12 м/с и более поправка равна нулю.
P - Атмосферное давление - приведенное к уровню моря атмосферное давление.
Po - Атмосферное давление - измеренное на уровне метеостанции атмосферное давление.
Tmin - Минимальная температура - минимум температуры воздуха на высоте 2 м над землей.
Tmax - Максимальная температура - максимум температуры воздуха на высоте 2 м над землей.
R - Количество осадков - Количество выпавших осадков за период времени, мм. При наведении курсора мыши на число - период времени, за который выпало указанное количество осадков.
R24 - Количество осадков - Количество выпавших осадков за 24 часа, мм.
S - Снежный покров - Высота снежного покрова, см. При наведении курсора мыши на число - состояние снежного покрова и степень покрытия местности в баллах.